This demonstration page uses our WeatherBlox Daily Observations layout. Learn more.

Left ArrowRight Arrow

39.01783, -85.05884

Hourly Observations for May 7, 2019

Temp ( °F °C ) Dew Point ( °F °C ) Humidity (%) Winds ( mph kmh ) Pressure ( in mb ) Visibility ( mi km ) Precip ( " mm )
12:52 am 00:52 Clear 56 13.3 52 11.1 87 87 S 6 9 30.08 1019 10 16 0.00 0.00
1:52 am 01:52 Clear 57 13.9 52 11.1 83 83 S 5 7 30.06 1018 10 16 0.00 0.00
2:52 am 02:52 Mostly Clear 57 13.9 49 9.4 74 74 S 6 9 30.05 1018 10 16 0.00 0.00
3:52 am 03:52 Partly Cloudy 56 13.3 48 8.9 75 75 S 7 11 30.04 1017 10 16 0.00 0.00
4:52 am 04:52 Mostly Cloudy 55 12.8 48 8.9 77 77 Calm 30.05 1018 10 16 0.00 0.00
5:52 am 05:52 Partly Cloudy 53 11.7 49 9.4 86 86 Calm 30.07 1018 10 16 0.00 0.00
6:52 am 06:52 Mostly Cloudy 51 10.6 48 8.9 89 89 SE 3 6 30.08 1019 10 16 0.00 0.00
7:52 am 07:52 Mostly Sunny 58 14.4 52 11.1 81 81 Calm 30.11 1020 10 16 0.00 0.00
8:52 am 08:52 Mostly Sunny 64 17.8 52 11.1 65 65 S 5 7 30.12 1020 10 16 0.00 0.00
9:52 am 09:52 Partly Cloudy 69 20.6 51 10.6 53 53 SW 7 11 30.13 1020 10 16 0.00 0.00
10:52 am 10:52 Partly Cloudy 72 22.2 52 11.1 50 50 SSW 8 13 30.14 1021 10 16 0.00 0.00
11:52 am 11:52 Partly Cloudy 75 23.9 53 11.7 46 46 WNW 6 9 30.13 1020 10 16 0.00 0.00
12:52 pm 12:52 Mostly Cloudy 74 23.3 51 10.6 45 45 Calm 30.11 1020 10 16 0.00 0.00
1:52 pm 13:52 Mostly Cloudy 77 25 54 12.2 45 45 VRB 7 11 30.09 1019 10 16 0.00 0.00
2:52 pm 14:52 Mostly Cloudy 79 26.1 51 10.6 38 38 VRB 3 6 30.08 1019 10 16 0.00 0.00
3:52 pm 15:52 Mostly Cloudy 78 25.6 51 10.6 39 39 VRB 3 6 30.07 1018 10 16 0.00 0.00
4:52 pm 16:52 Cloudy 76 24.4 54 12.2 47 47 SW 6 9 30.07 1018 10 16 0.00 0.00
5:52 pm 17:52 Cloudy 75 23.9 55 12.8 50 50 SW 3 6 30.07 1018 10 16 0.00 0.00
6:52 pm 18:52 Mostly Cloudy 75 23.9 53 11.7 46 46 WSW 3 6 30.07 1018 10 16 0.00 0.00
7:52 pm 19:52 Mostly Cloudy 74 23.3 54 12.2 50 50 WNW 7 11 30.06 1018 10 16 0.00 0.00
8:52 pm 20:52 Mostly Cloudy 70 21.1 54 12.2 57 57 WNW 5 7 30.07 1018 10 16 0.00 0.00
9:52 pm 21:52 Mostly Cloudy 68 20 53 11.7 59 59 N 7 11 30.07 1018 10 16 0.00 0.00
10:52 pm 22:52 Mostly Cloudy 69 20.6 56 13.3 63 63 NNE 10 17 30.09 1019 10 16 0.00 0.00
11:52 pm 23:52 Partly Cloudy 66 18.9 56 13.3 70 70 NE 10 17 30.09 1019 10 16 0.00 0.00

Powered by AerisWeather